,

(GMT )
Yohin

Weather History for CXYH - May, 2013

Change the Weather History Date:

Tuesday, May 21, 2013

  Actual Average Record
Temperature  
Mean Temperature 38 °F -  
Max Temperature 52 °F - - ()
Min Temperature 25 °F - - ()
Degree Days  
Heating Degree Days 26    
Moisture  
Dew Point 25 °F    
Average Humidity 58    
Maximum Humidity 94    
Minimum Humidity 25    
Precipitation  
Precipitation 0.00 in - - ()
Sea Level Pressure  
Sea Level Pressure 30.47 in    
Wind  
Wind Speed 2 mph ()    
Max Wind Speed 7 mph    
Max Gust Speed -    
T = Trace of Precipitation, MM = Missing Value Source: Averaged Metar Reports

Daily Weather History Graph

Daily Weather History Graph

Search for Another Location

Airport or City:

Trip Planner

Search our weather history database for the weather conditions in past years. The results will help you decide how hot, cold, wet, or windy it might be!

Date:

Astronomy

May. 21, 2013 Rise Set
Actual Time 5:12 AM MDT 11:12 PM MDT
Civil Twilight 3:52 AM MDT 12:33 AM MDT
Nautical Twilight Sun does not set Sun does not set
Astronomical Twilight Sun does not set Sun does not set
Moon 6:30 PM MDT (5/21) 3:57 AM MDT (5/21)
Length of Visible Light 20h 41m
Length of Day
18h 00m
Waxing Gibbous, 84% of the Moon is Illuminated
May 21
Waxing Gibbous
May 24
Full
May 31
Last Quarter
Jun 8
New
Jun 16
First Quarter

Hourly Weather History & Observations

Time (MDT) Temp. Windchill Dew Point Humidity Pressure Visibility Wind Dir Wind Speed Gust Speed Precip Events Conditions
12:00 AM 34 °F - 28 °F 69% 30.42 in - Calm Calm - -  
12:00 AM 33.8 °F - 27.5 °F 78% 30.42 in - Calm Calm - N/A   Unknown
1:00 AM 30.6 °F - 25.5 °F 82% 30.44 in - North 1.2 mph - N/A   Unknown
2:00 AM 28.4 °F - 25.0 °F 87% 30.45 in - North 1.2 mph - N/A   Unknown
3:00 AM 26.8 °F - 24.6 °F 92% 30.47 in - NNW 1.2 mph - N/A   Unknown
4:00 AM 25.7 °F - 24.1 °F 94% 30.48 in - North 1.2 mph - N/A   Unknown
5:00 AM 25.0 °F - 23.2 °F 93% 30.50 in - North 2.3 mph - N/A   Unknown
6:00 AM 26 °F - 24 °F 86% 30.51 in - NE 1.2 mph - -  
6:00 AM 26.2 °F - 23.5 °F 90% 30.51 in - NE 1.2 mph - N/A   Unknown
7:00 AM 31.8 °F 28.5 °F 24.8 °F 75% 30.52 in - NNW 3.5 mph - N/A   Unknown
8:00 AM 37.2 °F - 24.8 °F 61% 30.52 in - NNW 2.3 mph - N/A   Unknown
9:00 AM 38.7 °F - 26.1 °F 61% 30.53 in - WNW 1.2 mph - N/A   Unknown
10:00 AM 41.7 °F - 26.2 °F 54% 30.53 in - WSW 2.3 mph - N/A   Unknown
11:00 AM 48.0 °F - 23.5 °F 38% 30.52 in - ESE 1.2 mph - N/A   Unknown
12:00 PM 50.7 °F - 24.4 °F 36% 30.50 in - SSE 3.5 mph - N/A   Unknown
1:00 PM 52.0 °F - 24.1 °F 34% 30.48 in - SSW 2.3 mph - N/A   Unknown
2:00 PM 51.4 °F - 23.0 °F 33% 30.48 in - SSE 5.8 mph - N/A   Unknown
3:00 PM 51.6 °F - 22.3 °F 32% 30.47 in - South 4.6 mph - N/A   Unknown
4:00 PM 50.9 °F - 21.4 °F 31% 30.46 in - South 5.8 mph - N/A   Unknown
5:00 PM 50.7 °F - 22.8 °F 34% 30.45 in - SSE 5.8 mph - N/A   Unknown
6:00 PM 49 °F - 24 °F 25% 30.45 in - South 6.9 mph - -  
6:00 PM 49.5 °F - 24.1 °F 37% 30.45 in - South 6.9 mph - N/A   Unknown
7:00 PM 48.4 °F - 25.0 °F 40% 30.45 in - South 5.8 mph - N/A   Unknown
8:00 PM 47.1 °F - 25.7 °F 43% 30.45 in - NW 2.3 mph - N/A   Unknown
9:00 PM 46.9 °F - 28.0 °F 48% 30.44 in - WNW 3.5 mph - N/A   Unknown
10:00 PM 46.2 °F - 28.8 °F 51% 30.44 in - West 1.2 mph - N/A   Unknown
11:00 PM 44.6 °F - 33.4 °F 65% 30.44 in - WSW 1.2 mph - N/A   Unknown